FW7458 Weather Reports


time (UTC)temp
C
wind
direction
speed
KPH
gust
KPH
rain 1hr
cm
rain 24hr
cm
rain mn
cm
humidity
%
barometer
mb
20260510180503 18 318 9.7 22.5 0.00 0.00 0.00 36 1020.3
20260510180009 19 76 8.0 25.7 0.00 0.00 0.00 36 1020.3
20260510175503 18 342 16.1 27.4 0.00 0.00 0.00 36 1020.4
20260510175003 18 343 14.5 27.4 0.00 0.00 0.00 36 1020.5
20260510174506 19 13 14.5 25.7 0.00 0.00 0.00 34 1020.5
20260510174004 19 352 11.3 24.1 0.00 0.00 0.00 35 1020.3
20260510173503 19 40 6.4 22.5 0.00 0.00 0.00 36 1020.2
20260510173009 19 20 12.9 20.9 0.00 0.00 0.00 37 1020.2
20260510172503 18 29 6.4 24.1 0.00 0.00 0.00 37 1020.1
20260510172003 18 44 3.2 25.7 0.00 0.00 0.00 36 1020.0
20260510171516 18 40 14.5 25.7 0.00 0.00 0.00 36 1019.9
20260510171003 18 9 6.4 24.1 0.00 0.00 0.00 38 1019.6
20260510170505 18 9 6.4 24.1 0.00 0.00 0.00 38 1019.7
20260510170008 18 36 8.0 19.3 0.00 0.00 0.00 38 1019.7
20260510165505 18 42 8.0 24.1 0.00 0.00 0.00 39 1019.7
20260510165002 18 352 9.7 24.1 0.00 0.00 0.00 38 1019.6
20260510164516 18 333 4.8 24.1 0.00 0.00 0.00 37 1019.6
20260510164004 18 24 11.3 24.1 0.00 0.00 0.00 36 1019.6
20260510163504 18 15 9.7 20.9 0.00 0.00 0.00 35 1019.5
20260510163010 18 79 6.4 24.1 0.00 0.00 0.00 37 1019.4
20260510162504 18 9 8.0 24.1 0.00 0.00 0.00 37 1019.4
20260510162003 18 26 6.4 20.9 0.00 0.00 0.00 36 1019.2
20260510161510 18 27 6.4 20.9 0.00 0.00 0.00 38 1019.2
20260510161003 18 62 4.8 24.1 0.00 0.00 0.00 38 1019.2
20260510160504 18 59 9.7 24.1 0.00 0.00 0.00 37 1019.3
20260510160014 18 15 6.4 22.5 0.00 0.00 0.00 39 1019.1
20260510155503 18 31 9.7 24.1 0.00 0.00 0.00 39 1019.0
20260510155003 18 86 8.0 29.0 0.00 0.00 0.00 39 1019.0
20260510154512 17 27 12.9 25.7 0.00 0.00 0.00 39 1018.9
20260510154004 17 19 14.5 25.7 0.00 0.00 0.00 39 1018.9
20260510153504 17 15 11.3 22.5 0.00 0.00 0.00 39 1018.9
20260510153013 17 54 14.5 24.1 0.00 0.00 0.00 40 1019.0
20260510152504 17 26 8.0 24.1 0.00 0.00 0.00 41 1018.8
20260510152005 17 57 9.7 22.5 0.00 0.00 0.00 41 1018.9
20260510151514 17 42 9.7 20.9 0.00 0.00 0.00 44 1019.1
20260510151004 16 47 9.7 27.4 0.00 0.00 0.00 45 1019.0
20260510150508 16 32 12.9 27.4 0.00 0.00 0.00 45 1019.0
20260510150017 16 18 12.9 22.5 0.00 0.00 0.00 46 1019.2
20260510145507 16 31 12.9 22.5 0.00 0.00 0.00 46 1019.2
20260510145004 16 360 8.0 19.3 0.00 0.00 0.00 46 1019.1
20260510144516 16 9 6.4 24.1 0.00 0.00 0.00 46 1019.1
20260510144004 16 14 6.4 24.1 0.00 0.00 0.00 46 1019.1
20260510143508 16 360 1.6 17.7 0.00 0.00 0.00 48 1019.2
20260510143030 16 28 6.4 16.1 0.00 0.00 0.00 49 1019.3
20260510142506 15 337 6.4 17.7 0.00 0.00 0.00 49 1019.1
20260510142007 15 9 8.0 16.1 0.00 0.00 0.00 49 1019.2
20260510141515 15 20 8.0 17.7 0.00 0.00 0.00 50 1019.2
20260510141007 15 325 8.0 19.3 0.00 0.00 0.00 49 1019.3
20260510140506 15 12 9.7 19.3 0.00 0.00 0.00 49 1019.1
20260510140005 15 351 8.0 17.7 0.00 0.00 0.00 50 1019.1
20260510135502 15 30 6.4 17.7 0.00 0.00 0.00 49 1018.8
20260510135002 15 23 6.4 17.7 0.00 0.00 0.00 50 1018.7
20260510134503 15 10 4.8 17.7 0.00 0.00 0.00 50 1018.6
20260510134002 15 13 6.4 19.3 0.00 0.00 0.00 50 1018.4
20260510133503 15 30 4.8 19.3 0.00 0.00 0.00 51 1018.2
20260510133003 15 30 6.4 24.1 0.00 0.00 0.00 51 1018.2
20260510132503 15 62 8.0 24.1 0.00 0.00 0.00 52 1018.0
20260510132016 15 24 9.7 24.1 0.00 0.00 0.00 52 1017.9
20260510131504 15 26 12.9 25.7 0.00 0.00 0.00 53 1017.7
20260510131003 15 53 9.7 25.7 0.00 0.00 0.00 53 1017.6
20260510130503 15 29 12.9 24.1 0.00 0.00 0.00 52 1017.6
20260510130009 15 36 8.0 24.1 0.00 0.00 0.00 52 1017.4
20260510125504 15 24 12.9 22.5 0.00 0.00 0.00 52 1017.5
20260510125006 15 20 8.0 20.9 0.00 0.00 0.00 52 1017.5
20260510124503 15 26 9.7 22.5 0.00 0.00 0.00 53 1017.3
20260510124003 15 52 8.0 20.9 0.00 0.00 0.00 53 1017.1
20260510123502 15 15 3.2 20.9 0.00 0.00 0.00 53 1017.0
20260510123004 15 73 3.2 14.5 0.00 0.00 0.00 53 1016.6
20260510122502 15 40 3.2 9.7 0.00 0.00 0.00 55 1016.4
20260510122002 15 27 3.2 11.3 0.00 0.00 0.00 56 1016.3
20260510121504 15 70 4.8 16.1 0.00 0.00 0.00 59 1016.1
20260510121003 15 61 4.8 16.1 0.00 0.00 0.00 60 1016.0
20260510120504 15 40 4.8 16.1 0.00 0.00 0.00 61 1016.2
20260510120010 15 36 6.4 14.5 0.00 0.00 0.00 62 1016.1
20260510115502 15 16 4.8 14.5 0.00 0.00 0.00 63 1016.2
20260510115004 15 27 6.4 17.7 0.00 0.00 0.00 64 1016.1
20260510114512 15 39 6.4 24.1 0.00 0.03 0.00 64 1016.0
20260510114006 15 25 6.4 24.1 0.00 0.03 0.00 64 1015.9
20260510113505 15 9 6.4 16.1 0.00 0.03 0.00 64 1016.0
20260510113005 15 12 6.4 17.7 0.00 0.03 0.00 64 1015.9
20260510112511 15 351 8.0 20.9 0.00 0.03 0.00 64 1015.7
20260510112003 15 17 8.0 20.9 0.00 0.03 0.00 64 1015.7
20260510111505 15 26 6.4 16.1 0.00 0.03 0.00 65 1015.7
20260510111004 15 40 8.0 16.1 0.00 0.03 0.00 65 1015.6
20260510110503 15 10 8.0 19.3 0.00 0.03 0.00 67 1015.4
20260510110006 15 340 8.0 19.3 0.00 0.03 0.00 68 1015.4
20260510105504 15 19 8.0 17.7 0.00 0.03 0.00 68 1015.4
20260510105002 15 17 6.4 17.7 0.00 0.03 0.00 69 1015.2
20260510104509 15 32 6.4 16.1 0.00 0.03 0.00 69 1015.2
20260510104002 15 9 4.8 16.1 0.00 0.03 0.00 68 1015.3
20260510103502 15 9 4.8 16.1 0.00 0.03 0.00 68 1015.3
20260510103020 15 20 9.7 16.1 0.00 0.03 0.00 68 1015.2
20260510102509 15 26 6.4 14.5 0.00 0.03 0.00 68 1015.1
20260510102006 16 336 6.4 16.1 0.00 0.03 0.00 67 1014.8
20260510101504 16 33 4.8 16.1 0.00 0.03 0.00 67 1014.8
20260510101002 16 15 8.0 14.5 0.00 0.03 0.00 66 1014.9
20260510100505 16 22 6.4 12.9 0.00 0.03 0.00 66 1014.8
20260510100004 16 15 6.4 11.3 0.00 0.03 0.00 65 1014.6
20260510095503 16 360 4.8 11.3 0.00 0.03 0.00 65 1014.4
20260510095002 16 40 3.2 11.3 0.00 0.03 0.00 65 1014.3
20260510094506 16 360 3.2 8.0 0.00 0.03 0.00 65 1014.4
20260510094004 16 15 1.6 14.5 0.00 0.03 0.00 65 1014.4
20260510093504 16 65 3.2 14.5 0.00 0.03 0.00 65 1014.3
20260510093012 16 46 3.2 9.7 0.00 0.03 0.00 65 1014.1
20260510092503 16 360 4.8 9.7 0.00 0.03 0.00 65 1014.1
20260510092006 16 31 1.6 16.1 0.00 0.03 0.00 66 1014.1
20260510091521 16 53 6.4 16.1 0.00 0.03 0.00 65 1014.0
20260510091007 17 21 4.8 16.1 0.00 0.03 0.00 66 1014.1
20260510090507 17 10 6.4 16.1 0.00 0.03 0.00 65 1014.2
20260510090025 17 17 3.2 16.1 0.00 0.03 0.00 65 1014.1
20260510085505 17 9 4.8 16.1 0.00 0.05 0.00 65 1013.9
20260510085003 17 17 4.8 16.1 0.00 0.05 0.00 65 1013.7
20260510084504 17 31 4.8 16.1 0.00 0.05 0.00 66 1013.5
20260510084003 17 59 8.0 16.1 0.00 0.05 0.00 65 1013.5
20260510083504 17 351 6.4 14.5 0.00 0.05 0.00 65 1013.4
20260510083018 17 10 4.8 12.9 0.00 0.05 0.00 65 1013.2
20260510082505 17 36 4.8 9.7 0.00 0.05 0.00 64 1013.0
20260510082004 17 35 3.2 9.7 0.00 0.05 0.00 64 1012.9
20260510081516 17 329 1.6 9.7 0.00 0.05 0.00 64 1012.9
20260510081009 17 44 3.2 8.0 0.00 0.05 0.00 64 1012.9
20260510080507 18 57 3.2 8.0 0.00 0.05 0.00 63 1012.6
20260510080027 18 26 3.2 12.9 0.00 0.05 0.00 63 1012.7
20260510075506 18 23 4.8 12.9 0.00 0.05 0.00 62 1012.7
20260510075009 18 19 4.8 12.9 0.00 0.05 0.00 62 1012.7
20260510074526 18 22 4.8 12.9 0.00 0.05 0.00 62 1012.7
20260510074002 18 17 3.2 12.9 0.00 0.05 0.00 62 1012.7
20260510073503 18 43 4.8 11.3 0.00 0.05 0.00 61 1012.7
20260510073009 18 20 3.2 11.3 0.00 0.05 0.00 61 1012.7
20260510072507 18 37 3.2 11.3 0.00 0.05 0.00 57 1012.7
20260510072004 19 360 4.8 6.4 0.00 0.05 0.00 57 1012.7
20260510071513 19 360 3.2 6.4 0.00 0.05 0.00 56 1012.7
20260510071003 20 352 3.2 4.8 0.00 0.05 0.00 55 1012.7
20260510070503 20 28 1.6 4.8 0.00 0.05 0.00 54 1012.6
20260510070029 20 13 0.0 3.2 0.00 0.05 0.00 53 1012.5
20260510065506 20 34 0.0 3.2 0.00 0.05 0.00 53 1012.4
20260510065014 20 29 0.0 3.2 0.00 0.05 0.00 53 1012.5
20260510064528 20 17 0.0 3.2 0.00 0.05 0.00 52 1012.4
20260510064006 20 88 0.0 3.2 0.00 0.05 0.00 52 1012.2
20260510063513 20 93 0.0 3.2 0.00 0.05 0.00 52 1012.1
20260510063029 20 22 0.0 3.2 0.00 0.05 0.00 51 1012.1
20260510062505 20 27 0.0 3.2 0.00 0.05 0.00 51 1012.2
20260510062007 21 50 0.0 3.2 0.00 0.05 0.00 51 1012.1
20260510061511 21 24 0.0 3.2 0.00 0.05 0.00 50 1012.1
20260510061004 20 26 0.0 3.2 0.00 0.05 0.00 50 1012.0
20260510060504 20 32 0.0 3.2 0.00 0.05 0.00 50 1012.0
20260510060017 20 26 0.0 6.4 0.00 0.05 0.00 51 1012.0
20260510055505 20 39 0.0 6.4 0.00 0.05 0.00 53 1012.0
20260510055011 20 9 0.0 6.4 0.00 0.05 0.00 54 1012.1
20260510054523 20 327 1.6 3.2 0.00 0.05 0.00 55 1012.1
20260510054011 20 48 0.0 0.0 0.00 0.05 0.00 52 1012.1
20260510053511 21 48 0.0 0.0 0.00 0.05 0.00 52 1011.9
20260510053027 21 48 0.0 3.2 0.00 0.05 0.00 51 1011.8
20260510052511 21 48 0.0 3.2 0.00 0.05 0.00 52 1011.9
20260510052015 21 48 0.0 3.2 0.00 0.05 0.00 50 1011.8
20260510051526 21 48 0.0 3.2 0.00 0.05 0.00 49 1011.7
20260510051003 21 48 0.0 3.2 0.00 0.05 0.00 48 1011.7
20260510050503 21 40 0.0 3.2 0.00 0.05 0.00 48 1011.8
20260510050014 21 40 0.0 3.2 0.00 0.05 0.00 49 1011.8
20260510045506 21 40 0.0 3.2 0.00 0.05 0.05 49 1011.8
20260510045007 21 40 0.0 3.2 0.00 0.05 0.05 49 1011.9
20260510044530 21 40 0.0 3.2 0.00 0.05 0.05 48 1012.0
20260510044006 22 40 0.0 3.2 0.00 0.05 0.05 48 1012.0
20260510043507 22 40 0.0 3.2 0.00 0.05 0.05 48 1012.1
20260510043026 22 22 0.0 4.8 0.00 0.05 0.05 47 1012.0
20260510042508 22 9 1.6 4.8 0.00 0.05 0.05 47 1012.1
20260510042013 22 5 0.0 4.8 0.00 0.05 0.05 46 1012.1
20260510041527 22 37 0.0 8.0 0.00 0.05 0.05 46 1012.0
20260510041004 22 34 3.2 9.7 0.00 0.05 0.05 46 1012.0
20260510040502 22 32 3.2 9.7 0.00 0.05 0.05 47 1012.1
20260510040012 21 346 3.2 0.0 0.00 0.05 0.05 1012.1
20260510035510 -17 0.0 0.0 0.00 0.05 0.05 1012.3
20260510035011 -17 0.0 0.0 0.00 0.05 0.05 1012.2
20260510034530 -17 0.0 0.0 0.00 0.05 0.05 1012.1
20260510034008 -17 0.0 0.0 0.00 0.05 0.05 1012.1
20260510033514 -17 0.0 0.0 0.00 0.05 0.05 1012.0
20260510033028 -17 0.0 0.0 0.00 0.05 0.05 1011.9
20260510032510 -17 0.0 0.0 0.00 0.05 0.05 1011.4
20260510032019 -17 0.0 0.0 0.00 0.05 0.05 1011.3
20260510031531 -17 0.0 0.0 0.00 0.05 0.05 1011.2
20260510031013 -17 0.0 0.0 0.00 0.05 0.05 1011.0
20260510030513 -17 0.0 0.0 0.00 0.05 0.05 1010.6
20260510030031 -17 0.0 0.0 0.00 0.05 0.05 1010.3
20260510025510 22 1.6 4.8 0.00 0.05 0.05 54 1010.2
20260510025013 22 191 1.6 4.8 0.00 0.05 0.05 54 1010.2
20260510024517 22 207 1.6 4.8 0.00 0.05 0.05 54 1010.1
20260510024010 22 243 0.0 4.8 0.00 0.05 0.05 54 1010.2
20260510023506 22 237 1.6 4.8 0.00 0.05 0.05 54 1010.1
20260510023020 22 209 1.6 4.8 0.00 0.05 0.05 54 1010.0
20260510022510 22 220 0.0 3.2 0.00 0.05 0.05 54 1009.8
20260510022013 22 230 0.0 3.2 0.00 0.05 0.05 54 1009.6
20260510021532 23 198 1.6 3.2 0.00 0.05 0.05 53 1009.5
20260510021010 23 209 0.0 3.2 0.00 0.05 0.05 53 1009.4
20260510020513 23 213 0.0 3.2 0.00 0.05 0.05 52 1009.3
20260510020028 23 192 0.0 3.2 0.00 0.05 0.05 52 1009.1
20260510015507 23 205 0.0 6.4 0.00 0.05 0.05 51 1009.0
20260510015018 23 184 1.6 6.4 0.00 0.05 0.05 51 1008.8
20260510014511 23 192 1.6 4.8 0.00 0.05 0.05 50 1008.8
20260510014003 23 209 1.6 4.8 0.00 0.05 0.05 49 1008.7
20260510013505 24 196 0.0 3.2 0.00 0.05 0.05 48 1008.6
20260510013027 24 198 1.6 8.0 0.00 0.05 0.05 48 1008.5
20260510012506 24 184 1.6 8.0 0.00 0.05 0.05 47 1008.3
20260510012012 25 205 3.2 6.4 0.00 0.05 0.05 46 1008.3
20260510011534 25 210 1.6 6.4 0.00 0.05 0.05 46 1008.3
20260510011008 25 194 1.6 6.4 0.00 0.05 0.05 45 1008.2
20260510010502 25 188 1.6 8.0 0.00 0.08 0.05 44 1008.0
20260510010026 25 204 1.6 9.7 0.00 0.18 0.05 43 1007.9
20260510005503 26 225 4.8 9.7 0.00 0.20 0.05 43 1007.9
20260510005003 26 175 3.2 9.7 0.00 0.20 0.05 42 1007.8
20260510004513 26 207 4.8 9.7 0.00 0.20 0.05 41 1007.8
20260510004005 26 185 1.6 4.8 0.00 0.20 0.05 40 1007.8
20260510003511 26 207 1.6 6.4 0.00 0.20 0.05 39 1007.8
20260510003013 26 211 3.2 6.4 0.00 0.20 0.05 39 1007.8
20260510002507 27 199 3.2 8.0 0.00 0.20 0.05 38 1007.7
20260510002010 27 196 4.8 8.0 0.00 0.20 0.05 38 1007.8
20260510001529 27 198 3.2 8.0 0.00 0.20 0.05 37 1007.8
20260510001007 27 245 1.6 9.7 0.00 0.20 0.05 36 1007.8
20260510000513 27 180 4.8 11.3 0.00 0.20 0.05 35 1007.8
20260510000051 27 152 4.8 11.3 0.00 0.23 0.05 35 1007.9
20260509235515 27 192 4.8 9.7 0.00 0.30 0.05 34 1007.9
20260509235003 27 186 6.4 11.3 0.00 0.30 0.05 33 1007.9
20260509234509 27 220 4.8 11.3 0.00 0.30 0.05 34 1007.8
20260509234006 27 194 6.4 16.1 0.00 0.30 0.05 33 1007.7
20260509233515 27 229 4.8 16.1 0.00 0.30 0.05 33 1007.7
20260509233014 27 220 8.0 14.5 0.00 0.30 0.05 33 1007.9
20260509232508 27 142 4.8 17.7 0.00 0.30 0.05 33 1007.7
20260509232011 27 173 6.4 16.1 0.00 0.30 0.05 32 1007.7
20260509231530 28 175 8.0 14.5 0.00 0.30 0.05 33 1007.9
20260509231006 28 211 6.4 16.1 0.00 0.30 0.05 33 1007.8
20260509230516 28 207 8.0 16.1 0.00 0.30 0.05 32 1007.8
20260509230028 28 178 6.4 14.5 0.00 0.30 0.05 31 1007.7
20260509225512 28 224 6.4 12.9 0.00 0.30 0.05 30 1007.7
20260509225016 28 219 8.0 12.9 0.00 0.30 0.05 30 1007.7
20260509224527 29 211 3.2 8.0 0.00 0.30 0.05 29 1007.7
20260509224007 28 212 3.2 8.0 0.00 0.30 0.05 28 1007.7
20260509223512 28 163 3.2 8.0 0.00 0.30 0.05 26 1007.7
20260509223015 28 265 3.2 12.9 0.00 0.30 0.05 26 1007.6
20260509222507 28 296 4.8 12.9 0.00 0.30 0.05 27 1007.7
20260509222003 28 261 3.2 12.9 0.00 0.30 0.05 26 1007.6
20260509221529 28 310 4.8 17.7 0.00 0.30 0.05 25 1007.6
20260509221007 29 298 3.2 17.7 0.00 0.30 0.05 26 1007.6
20260509220508 29 333 3.2 9.7 0.00 0.30 0.05 26 1007.6
20260509220025 28 269 3.2 16.1 0.00 0.30 0.05 26 1007.5
20260509215511 28 282 3.2 16.1 0.00 0.30 0.05 25 1007.5
20260509215013 28 265 11.3 16.1 0.00 0.30 0.05 25 1007.6
20260509214530 28 274 6.4 16.1 0.00 0.30 0.05 25 1007.5
20260509214009 28 311 4.8 16.1 0.00 0.30 0.05 24 1007.5
20260509213508 28 275 9.7 16.1 0.00 0.30 0.05 24 1007.6
20260509213028 28 238 6.4 16.1 0.00 0.30 0.05 25 1007.6
20260509212510 28 223 4.8 16.1 0.00 0.30 0.05 25 1007.7
20260509212015 28 262 3.2 17.7 0.00 0.30 0.05 24 1007.6
20260509211518 28 230 6.4 17.7 0.00 0.30 0.05 24 1007.7
20260509211004 28 252 9.7 16.1 0.00 0.30 0.05 25 1007.7
20260509210511 29 315 6.4 14.5 0.00 0.30 0.05 25 1007.8
20260509210026 28 216 4.8 12.9 0.00 0.30 0.05 25 1007.8
20260509205511 28 225 4.8 0.0 0.00 0.30 0.05 25 1007.9
20260509205011 -17 0.0 0.0 0.00 0.30 0.05 1007.9
20260509204539 -17 0.0 0.0 0.00 0.30 0.05 1008.0
20260509204016 -17 0.0 0.0 0.00 0.30 0.05 1008.1
20260509203513 -17 0.0 0.0 0.00 0.30 0.05 1008.2
20260509203032 -17 0.0 0.0 0.00 0.30 0.05 1008.2
20260509202509 -17 0.0 0.0 0.00 0.30 0.05 1008.3
20260509202014 -17 0.0 0.0 0.00 0.30 0.05 1008.3
20260509201531 -17 0.0 0.0 0.00 0.30 0.05 1008.5
20260509201010 28 0.0 0.0 0.00 0.30 0.05 28 1008.5
20260509200516 28 6.4 22.5 0.00 0.30 0.05 28 1008.6
20260509200016 28 290 3.2 22.5 0.00 0.30 0.05 27 1008.7
20260509195511 28 218 8.0 19.3 0.00 0.30 0.05 27 1008.7
20260509195005 28 272 6.4 17.7 0.00 0.30 0.05 27 1008.8
20260509194526 28 232 4.8 16.1 0.00 0.30 0.05 27 1008.8
20260509194008 27 236 3.2 16.1 0.00 0.30 0.05 27 1008.8
20260509193510 28 244 9.7 16.1 0.00 0.30 0.05 27 1008.8
20260509193031 27 301 9.7 20.9 0.00 0.30 0.05 28 1008.8
20260509192506 27 331 8.0 20.9 0.00 0.30 0.05 27 1008.8
20260509192012 27 244 9.7 20.9 0.00 0.30 0.05 28 1008.8
20260509191530 27 309 12.9 20.9 0.00 0.30 0.05 28 1008.8
20260509191003 27 269 8.0 19.3 0.00 0.30 0.05 28 1008.8
20260509190503 27 267 9.7 19.3 0.00 0.30 0.05 27 1008.8
20260509190027 27 242 4.8 16.1 0.00 0.30 0.05 30 1008.8
20260509185502 27 348 8.0 24.1 0.00 0.30 0.05 29 1008.8
20260509185016 27 294 8.0 24.1 0.00 0.30 0.05 29 1008.9
20260509184504 27 312 9.7 24.1 0.00 0.30 0.05 30 1009.0
20260509184010 27 260 8.0 20.9 0.00 0.30 0.05 29 1009.0
20260509183503 27 304 8.0 20.9 0.00 0.30 0.05 32 1009.0
20260509183010 26 327 6.4 20.9 0.00 0.30 0.05 32 1009.1
20260509182504 26 298 9.7 17.7 0.00 0.30 0.05 33 1009.1
20260509182006 26 235 8.0 19.3 0.00 0.30 0.05 34 1009.1
20260509181507 26 265 9.7 19.3 0.00 0.30 0.05 33 1009.0
20260509181007 26 317 8.0 17.7 0.00 0.30 0.05 33 1009.1